Hourly Weather Golczewo

Today, 7 May, Friday

Time Temperature Precipitation Wind Pressure Humidity
00:00 +2°C° 0 mm 2 mps 736 mmHg 83%
01:00 +2°C° 0 mm 2 mps 736 mmHg 83%
02:00 +2°C° 0 mm 2 mps 736 mmHg 82%
03:00 +2°C° 0 mm 2 mps 736 mmHg 81%
04:00 +2°C° 0 mm 2 mps 736 mmHg 80%
05:00 +3°C° 0 mm 2 mps 736 mmHg 75%
06:00 +5°C° 0 mm 2 mps 737 mmHg 69%
07:00 +6°C° 0 mm 2 mps 737 mmHg 64%
08:00 +7°C° 0 mm 2 mps 737 mmHg 58%
09:00 +8°C° 0 mm 3 mps 737 mmHg 52%
10:00 +9°C° 0 mm 3 mps 737 mmHg 47%
11:00 +9°C° 0.2 mm 3 mps 737 mmHg 49%
12:00 +8°C° 0.2 mm 4 mps 737 mmHg 51%
13:00 +8°C° 0.2 mm 4 mps 738 mmHg 54%
14:00 +7°C° 0 mm 5 mps 738 mmHg 54%
15:00 +7°C° 0 mm 5 mps 738 mmHg 54%
16:00 +7°C° 0 mm 6 mps 738 mmHg 55%
17:00 +6°C° 0 mm 5 mps 739 mmHg 60%
18:00 +5°C° 0 mm 4 mps 739 mmHg 66%
19:00 +4°C° 0 mm 4 mps 740 mmHg 71%
20:00 +3°C° 0 mm 3 mps 740 mmHg 78%
21:00 +2°C° 0 mm 3 mps 740 mmHg 84%
22:00 +2°C° 0 mm 3 mps 741 mmHg 90%
23:00 +2°C° 0 mm 3 mps 741 mmHg 90%

Tomorrow, 8 May, Saturday

Time Temperature Precipitation Wind Pressure Humidity
00:00 +2°C° 0 mm 3 mps 741 mmHg 90%
01:00 +1°C° 0 mm 4 mps 741 mmHg 90%
02:00 +1°C° 0 mm 3 mps 742 mmHg 92%
03:00 +1°C° 0 mm 3 mps 742 mmHg 94%
04:00 0°C° 0 mm 3 mps 743 mmHg 96%
05:00 +1°C° 0 mm 3 mps 743 mmHg 92%
06:00 +3°C° 0 mm 4 mps 743 mmHg 88%
07:00 +3°C° 0 mm 5 mps 744 mmHg 84%
08:00 +3°C° 0 mm 5 mps 744 mmHg 81%
09:00 +3°C° 0 mm 5 mps 744 mmHg 78%
10:00 +5°C° 0 mm 5 mps 745 mmHg 75%
11:00 +5°C° 0.1 mm 5 mps 745 mmHg 72%
12:00 +5°C° 0.1 mm 6 mps 745 mmHg 68%
13:00 +5°C° 0.1 mm 6 mps 745 mmHg 64%
14:00 +7°C° 0 mm 6 mps 746 mmHg 57%
15:00 +8°C° 0 mm 6 mps 746 mmHg 50%
16:00 +9°C° 0 mm 6 mps 746 mmHg 43%
17:00 +7°C° 0 mm 4 mps 746 mmHg 50%
18:00 +7°C° 0 mm 3 mps 746 mmHg 57%
19:00 +6°C° 0 mm 2 mps 746 mmHg 65%
20:00 +5°C° 0 mm 2 mps 746 mmHg 67%
21:00 +4°C° 0 mm 2 mps 746 mmHg 70%
22:00 +3°C° 0 mm 2 mps 746 mmHg 72%
23:00 +3°C° 0 mm 2 mps 746 mmHg 72%

Day after tomorrow, 9 May, Sunday

Time Temperature Precipitation Wind Pressure Humidity
00:00 +3°C° 0 mm 2 mps 746 mmHg 73%
01:00 +2°C° 0 mm 3 mps 746 mmHg 73%
02:00 +3°C° 0 mm 3 mps 746 mmHg 73%
03:00 +3°C° 0 mm 3 mps 746 mmHg 72%
04:00 +3°C° 0 mm 4 mps 745 mmHg 72%
05:00 +5°C° 0 mm 4 mps 745 mmHg 68%
06:00 +6°C° 0 mm 5 mps 745 mmHg 65%
07:00 +8°C° 0 mm 6 mps 744 mmHg 62%
08:00 +8°C° 0 mm 6 mps 744 mmHg 62%
09:00 +9°C° 0 mm 6 mps 744 mmHg 62%
10:00 +9°C° 0 mm 6 mps 744 mmHg 62%
11:00 +11°C° 0 mm 6 mps 744 mmHg 56%
12:00 +15°C° 0 mm 6 mps 744 mmHg 51%
13:00 +17°C° 0 mm 6 mps 744 mmHg 45%
14:00 +19°C° 0 mm 6 mps 744 mmHg 48%
15:00 +19°C° 0 mm 6 mps 743 mmHg 50%
16:00 +19°C° 0 mm 6 mps 743 mmHg 52%
17:00 +17°C° 0 mm 5 mps 743 mmHg 58%
18:00 +16°C° 0 mm 5 mps 743 mmHg 64%
19:00 +15°C° 0 mm 4 mps 743 mmHg 69%
20:00 +14°C° 0 mm 4 mps 743 mmHg 74%
21:00 +13°C° 0 mm 4 mps 743 mmHg 79%
22:00 +12°C° 0 mm 4 mps 744 mmHg 84%
23:00 +12°C° 0 mm 4 mps 744 mmHg 85%

10 May, Monday

Time Temperature Precipitation Wind Pressure Humidity
00:00 +11°C° 0 mm 4 mps 743 mmHg 85%
01:00 +10°C° 0 mm 4 mps 743 mmHg 85%
02:00 +9°C° 0 mm 5 mps 743 mmHg 83%
03:00 +9°C° 0 mm 5 mps 743 mmHg 80%
04:00 +8°C° 0 mm 5 mps 743 mmHg 77%
05:00 +10°C° 0 mm 5 mps 743 mmHg 71%
06:00 +11°C° 0 mm 6 mps 743 mmHg 65%
07:00 +14°C° 0 mm 6 mps 743 mmHg 58%
08:00 +16°C° 0 mm 7 mps 743 mmHg 53%
09:00 +17°C° 0 mm 7 mps 743 mmHg 48%
10:00 +20°C° 0 mm 8 mps 743 mmHg 43%
11:00 +21°C° 0 mm 8 mps 743 mmHg 43%
12:00 +22°C° 0 mm 8 mps 742 mmHg 43%
13:00 +23°C° 0 mm 8 mps 742 mmHg 43%
14:00 +22°C° 0 mm 7 mps 742 mmHg 46%
15:00 +22°C° 0 mm 7 mps 742 mmHg 49%
16:00 +22°C° 0 mm 6 mps 742 mmHg 52%
17:00 +21°C° 0 mm 6 mps 742 mmHg 58%
18:00 +20°C° 0 mm 5 mps 743 mmHg 65%
19:00 +19°C° 0 mm 4 mps 743 mmHg 71%
20:00 +17°C° 0 mm 3 mps 743 mmHg 76%
21:00 +16°C° 0 mm 3 mps 743 mmHg 82%
22:00 +14°C° 0 mm 3 mps 743 mmHg 88%
23:00 +14°C° 0 mm 3 mps 743 mmHg 90%

11 May, Tuesday

Time Temperature Precipitation Wind Pressure Humidity
00:00 +13°C° 0 mm 3 mps 743 mmHg 92%
01:00 +13°C° 0 mm 3 mps 743 mmHg 94%
02:00 +12°C° 0 mm 3 mps 742 mmHg 94%
03:00 +12°C° 0 mm 3 mps 742 mmHg 94%
04:00 +12°C° 0 mm 3 mps 742 mmHg 94%
05:00 +13°C° 0 mm 4 mps 742 mmHg 87%
06:00 +15°C° 0 mm 4 mps 742 mmHg 81%
07:00 +16°C° 0 mm 5 mps 742 mmHg 74%
08:00 +19°C° 0 mm 6 mps 742 mmHg 67%
09:00 +21°C° 0 mm 6 mps 742 mmHg 59%
10:00 +23°C° 0 mm 6 mps 741 mmHg 52%
11:00 +23°C° 0 mm 6 mps 741 mmHg 51%
12:00 +24°C° 0 mm 7 mps 741 mmHg 50%
13:00 +24°C° 0 mm 7 mps 741 mmHg 49%
14:00 +24°C° 0 mm 6 mps 741 mmHg 51%
15:00 +24°C° 0 mm 6 mps 740 mmHg 54%
16:00 +24°C° 0 mm 6 mps 740 mmHg 57%
17:00 +23°C° 0 mm 5 mps 740 mmHg 61%
18:00 +22°C° 0 mm 5 mps 740 mmHg 66%
19:00 +21°C° 0 mm 5 mps 740 mmHg 70%
20:00 +20°C° 0 mm 5 mps 740 mmHg 74%
21:00 +19°C° 0 mm 5 mps 740 mmHg 78%
22:00 +17°C° 0 mm 5 mps 740 mmHg 82%
23:00 +16°C° 0 mm 5 mps 740 mmHg 82%

12 May, Wednesday

Time Temperature Precipitation Wind Pressure Humidity
00:00 +16°C° 0 mm 5 mps 740 mmHg 81%
01:00 +15°C° 0 mm 5 mps 739 mmHg 81%
02:00 +14°C° 0 mm 5 mps 739 mmHg 80%
03:00 +14°C° 0 mm 5 mps 739 mmHg 79%
04:00 +13°C° 0 mm 5 mps 739 mmHg 78%
05:00 +14°C° 0 mm 5 mps 739 mmHg 75%
06:00 +14°C° 0 mm 6 mps 739 mmHg 71%
07:00 +15°C° 0 mm 6 mps 738 mmHg 68%
08:00 +17°C° 0 mm 6 mps 738 mmHg 64%
09:00 +20°C° 0 mm 6 mps 738 mmHg 59%
10:00 +21°C° 0 mm 7 mps 738 mmHg 55%
11:00 +22°C° 0 mm 7 mps 738 mmHg 53%
12:00 +23°C° 0 mm 7 mps 738 mmHg 51%
13:00 +24°C° 0 mm 7 mps 738 mmHg 49%
14:00 +24°C° 0 mm 7 mps 738 mmHg 50%
15:00 +24°C° 0 mm 7 mps 738 mmHg 51%
16:00 +24°C° 0 mm 7 mps 737 mmHg 52%
17:00 +23°C° 0 mm 7 mps 737 mmHg 57%
18:00 +21°C° 0 mm 7 mps 737 mmHg 62%
19:00 +20°C° 0 mm 7 mps 737 mmHg 67%
20:00 +19°C° 0 mm 6 mps 737 mmHg 70%
21:00 +17°C° 0 mm 6 mps 738 mmHg 74%
22:00 +16°C° 0 mm 6 mps 738 mmHg 77%
23:00 +15°C° 0 mm 5 mps 738 mmHg 80%
Show more